Weather in Bir Lehlou

Sahrawi Arab Democratic Republic     26°20′58″N   9°34′35″W
temp.,
°C
wind,
m/s
gust,
m/s
humid.,
%
clouds,
%
prec.,
mm/h
press.,
hPa
HPBL,
m
8 march, mon
mon801:00+12nw713820 0.0 1017374
04:00+11nw815890 0.0 1016394
07:00+10nw713860 0.0 1015356
10:00+13nnw1013640 0.0 1016660
13:00+20nnw99310 0.0 10151030
16:00+24nnw99220 0.0 10111601
19:00+20nnw910320 0.0 10111320
22:00+14nnw813540 0.0 1014365
9 march, tue
tue901:00+10nw915770 0.0 1015431
04:00+10nw816820 0.0 1014515
07:00+10nw1017840 0.0 1013513
10:00+13nnw1216630 0.0 1013814
13:00+19nnw1315340 0.0 10121233
16:00+21nnw1314280 0.0 10101511
19:00+18nnw1214360 0.0 10101202
22:00+12nnw1118640 0.0 1013493
10 march, wed
wed1001:00+10nnw1119750 0.0 1014405
04:00+9nnw915730 0.0 1014324
07:00+8nnw711800 0.0 1015204
10:00+13n68580 0.0 1017290
13:00+21ne66300 0.0 10161111
16:00+24nne56190 0.0 10142005
19:00+23ne46170 0.0 1014240
22:00+18ne45230 0.0 101724
11 march, thu
thu1101:00+16ene56220 0.0 101978
04:00+15ene68260 0.0 101992
07:00+13ene610320 0.0 1020128
10:00+18e1013300 0.0 1022757
13:00+23ene1012190 0.0 10221633
16:00+24ene1012140 0.0 10181752
19:00+22ene810160 0.0 10191527
22:00+17ene56260 0.0 102163
12 march, fri
fri1201:00+15ene56280 0.0 102277
04:00+14e45330 0.0 102244
07:00+12ene56380 0.0 102248
10:00+17ene69240 0.0 1023656
13:00+23ene810130 0.0 10211476
16:00+25ene78100 0.0 10181744
19:00+23ene56116 0.0 1017223
22:00+17e45168 0.0 101923